Home > Weather > Jersey City > Past weeks

Flag for USA Past Weather in Jersey City, New Jersey, USA — Yesterday and Last 2 Weeks

Now
58 °F

Light rain. Mostly cloudy.


Feels Like: 57 °F
Forecast: 60 / 71 °F
Wind: 6 mph from North

Location: Newark International Airport

Current Time: May 24, 2016 at 6:10:40 AM

Latest Report: May 24, 2016 at 4:51 AM


Visibility: 10 mi

Pressure: 29.87 "Hg

Humidity: 93%

Dew Point: 56 °F

Location of Jersey CityLocation

Past Weather in Jersey City — Graph

°F

Jersey City Temperature Yesterday

Maximum temperature yesterday: 75 °F (at 12:51 PM)
Minimum temperature yesterday: 55 °F (at 4:51 AM)
Average temperature yesterday: 65 °F

High & Low Weather Summary for the Past Weeks

 TemperatureHumidityPressure
High76 °F (May 12, 4:51 PM)100% (May 13, 4:51 PM)30.27 "Hg (May 13, 4:51 PM)
Low40 °F (May 16, 5:51 AM)21% (May 16, 4:51 PM)29.59 "Hg (May 14, 5:51 PM)
Average61 °F56%30.01 "Hg
* Reported May 9 3:51 AM — May 24 3:51 AM, Jersey City, Weather by CustomWeather, © 2016

Note: Actual official high and low records may vary slightly from our data, if they occured in-between our weather recording intervals... More about our weather records

Advertising

Jersey City Weather History for the Previous 24 Hours

Scroll right to see more
 ConditionsComfort  
Time TempWeatherWind HumidityBarometerVisibility
3:51 AM
Tue, May 24
59 °FLight rain. Overcast.6 mph87%29.87 "Hg10 mi
2:51 AM60 °FLight rain. Overcast.3 mph83%29.88 "Hg10 mi
1:51 AM61 °FLight rain. Overcast.No wind75%29.90 "Hg10 mi
12:51 AM62 °FLight rain. Mostly cloudy.5 mph73%29.91 "Hg10 mi
11:51 PM
Mon, May 23
62 °FOvercast.6 mph67%29.93 "Hg10 mi
10:51 PM62 °FLight rain. Overcast.8 mph67%29.91 "Hg10 mi
9:51 PM63 °FRain. Mostly cloudy.7 mph63%29.91 "Hg9 mi
8:51 PM65 °FPartly sunny.6 mph51%29.88 "Hg10 mi
7:51 PM66 °FBroken clouds.12 mph49%29.87 "Hg10 mi
6:51 PM67 °FLight rain. Partly sunny.No wind55%29.87 "Hg10 mi
5:51 PM69 °FBroken clouds.12 mph51%29.85 "Hg10 mi
4:51 PM75 °FPartly sunny.7 mph43%29.85 "Hg10 mi
3:51 PM74 °FPartly sunny.9 mph46%29.86 "Hg10 mi
2:51 PM72 °FBroken clouds.8 mph49%29.87 "Hg10 mi
1:51 PM71 °FBroken clouds.12 mph53%29.89 "Hg10 mi
12:51 PM75 °FBroken clouds.8 mph47%29.90 "Hg10 mi
11:51 AM74 °FScattered clouds.10 mph46%29.90 "Hg10 mi
10:51 AM72 °FPassing clouds.12 mph49%29.90 "Hg10 mi
9:51 AM69 °FPassing clouds.7 mph57%29.92 "Hg9 mi
8:51 AM65 °FPassing clouds.No wind70%29.93 "Hg9 mi
7:51 AM61 °FScattered clouds.3 mph78%29.93 "Hg9 mi
6:51 AM58 °FScattered clouds.3 mph90%29.92 "Hg9 mi
Weather by CustomWeather, © 2016

See weather overviewHow to use our weather pages